| time (UTC) | temp C | wind direction | speed KPH | gust KPH | rain 1hr cm | rain 24hr cm | rain mn cm | humidity % | barometer mb |
| 20260503053505 | 11 | 181 | 0.0 | 3.2 | 0.00 | 0.00 | 0.00 | 62 | 1013.5 |
| 20260503052505 | 11 | 187 | 0.0 | 3.2 | 0.00 | 0.00 | 0.00 | 61 | 1013.3 |
| 20260503051006 | 10 | 188 | 3.2 | 3.2 | 0.00 | 0.00 | 0.00 | 63 | 1013.6 |
| 20260503050505 | 10 | 175 | 3.2 | 3.2 | 0.00 | 0.00 | 0.00 | 64 | 1013.5 |
| 20260503050006 | 10 | 184 | 3.2 | 3.2 | 0.00 | 0.00 | 0.00 | 63 | 1013.5 |
| 20260503045505 | 10 | 188 | 3.2 | 6.4 | 0.00 | 0.00 | 0.00 | 63 | 1013.2 |
| 20260503045005 | 10 | 191 | 3.2 | 6.4 | 0.00 | 0.00 | 0.00 | 63 | 1013.3 |
| 20260503044505 | 10 | 196 | 3.2 | 3.2 | 0.00 | 0.00 | 0.00 | 63 | 1013.5 |
| 20260503044006 | 10 | 194 | 3.2 | 3.2 | 0.00 | 0.00 | 0.00 | 63 | 1013.5 |
| 20260503043505 | 10 | 185 | 3.2 | 3.2 | 0.00 | 0.00 | 0.00 | 63 | 1013.4 |
| 20260503043005 | 10 | 196 | 0.0 | 6.4 | 0.00 | 0.00 | 0.00 | 63 | 1013.5 |
| 20260503042505 | 10 | 199 | 3.2 | 6.4 | 0.00 | 0.00 | 0.00 | 65 | 1013.5 |
| 20260503042006 | 10 | 196 | 3.2 | 3.2 | 0.00 | 0.00 | 0.00 | 64 | 1013.5 |
| 20260503041006 | 10 | 195 | 3.2 | 3.2 | 0.00 | 0.00 | 0.00 | 64 | 1013.4 |
| 20260503040505 | 10 | 195 | 3.2 | 3.2 | 0.00 | 0.00 | 0.00 | 63 | 1013.5 |
| 20260503040006 | 10 | 185 | 3.2 | 3.2 | 0.00 | 0.00 | 0.00 | 63 | 1013.5 |
| 20260503035505 | 10 | 155 | 3.2 | 3.2 | 0.00 | 0.00 | 0.00 | 62 | 1013.7 |
| 20260503035005 | 10 | 0 | 0.0 | 0.0 | 0.00 | 0.00 | 0.00 | 58 | 1013.6 |
| 20260503034505 | 10 | 112 | 0.0 | 3.2 | 0.00 | 0.00 | 0.00 | 58 | 1013.7 |
| 20260503034006 | 10 | 112 | 0.0 | 3.2 | 0.00 | 0.00 | 0.00 | 59 | 1013.6 |
| 20260503033005 | 10 | 0 | 0.0 | 0.0 | 0.00 | 0.00 | 0.00 | 59 | 1013.6 |
| 20260503032005 | 9 | 0 | 0.0 | 0.0 | 0.00 | 0.00 | 0.00 | 60 | 1013.7 |
| 20260503031505 | 9 | 0 | 0.0 | 0.0 | 0.00 | 0.00 | 0.00 | 61 | 1013.6 |
| 20260503031005 | 9 | 0 | 0.0 | 0.0 | 0.00 | 0.00 | 0.00 | 61 | 1013.4 |
| 20260503030505 | 9 | 0 | 0.0 | 0.0 | 0.00 | 0.00 | 0.00 | 61 | 1013.4 |
| 20260503030006 | 9 | 0 | 0.0 | 0.0 | 0.00 | 0.00 | 0.00 | 60 | 1013.5 |
| 20260503025506 | 9 | 0 | 0.0 | 0.0 | 0.00 | 0.00 | 0.00 | 60 | 1013.7 |
| 20260503025005 | 10 | 112 | 0.0 | 3.2 | 0.00 | 0.00 | 0.00 | 62 | 1013.6 |
| 20260503024505 | 10 | 120 | 0.0 | 6.4 | 0.00 | 0.00 | 0.00 | 60 | 1013.9 |
| 20260503023505 | 10 | 125 | 3.2 | 3.2 | 0.00 | 0.00 | 0.00 | 58 | 1013.8 |
| 20260503023006 | 10 | 129 | 3.2 | 3.2 | 0.00 | 0.00 | 0.00 | 60 | 1013.8 |
| 20260503022506 | 10 | 153 | 1.6 | 3.2 | 0.00 | 0.00 | 0.00 | 61 | 1013.9 |
| 20260503022005 | 9 | 304 | 0.0 | 3.2 | 0.00 | 0.00 | 0.00 | 62 | 1013.8 |
| 20260503021505 | 9 | 314 | 0.0 | 3.2 | 0.00 | 0.00 | 0.00 | 60 | 1013.8 |
| 20260503021005 | 9 | 314 | 0.0 | 3.2 | 0.00 | 0.00 | 0.00 | 63 | 1014.0 |
| 20260503020505 | 8 | 314 | 0.0 | 3.2 | 0.00 | 0.00 | 0.00 | 65 | 1013.9 |
| 20260503020005 | 9 | 314 | 0.0 | 3.2 | 0.00 | 0.00 | 0.00 | 66 | 1013.8 |
| 20260503015506 | 9 | 314 | 1.6 | 3.2 | 0.00 | 0.00 | 0.00 | 66 | 1013.7 |
| 20260503014506 | 9 | 312 | 3.2 | 3.2 | 0.00 | 0.00 | 0.00 | 65 | 1014.3 |
| 20260503014005 | 9 | 301 | 3.2 | 3.2 | 0.00 | 0.00 | 0.00 | 64 | 1014.1 |
| 20260503013505 | 9 | 293 | 3.2 | 3.2 | 0.00 | 0.00 | 0.00 | 63 | 1014.0 |
| 20260503013005 | 10 | 293 | 3.2 | 3.2 | 0.00 | 0.00 | 0.00 | 63 | 1014.2 |
| 20260503011506 | 10 | 292 | 3.2 | 3.2 | 0.00 | 0.00 | 0.00 | 63 | 1014.4 |
| 20260503010505 | 9 | 292 | 3.2 | 3.2 | 0.00 | 0.00 | 0.00 | 63 | 1014.6 |
| 20260503010005 | 9 | 292 | 1.6 | 3.2 | 0.00 | 0.00 | 0.00 | 63 | 1014.3 |
| 20260503005505 | 9 | 292 | 1.6 | 3.2 | 0.00 | 0.00 | 0.00 | 63 | 1014.4 |
| 20260503005005 | 9 | 292 | 1.6 | 3.2 | 0.00 | 0.00 | 0.00 | 62 | 1014.6 |
| 20260503004505 | 9 | 292 | 1.6 | 3.2 | 0.00 | 0.00 | 0.00 | 62 | 1014.6 |
| 20260503004005 | 9 | 288 | 1.6 | 3.2 | 0.00 | 0.00 | 0.00 | 61 | 1014.5 |
| 20260503002505 | 9 | 279 | 1.6 | 3.2 | 0.00 | 0.00 | 0.00 | 61 | 1014.8 |
| 20260503001505 | 10 | 313 | 1.6 | 3.2 | 0.00 | 0.00 | 0.00 | 60 | 1014.9 |
| 20260503001006 | 10 | 314 | 1.6 | 3.2 | 0.00 | 0.00 | 0.00 | 59 | 1014.7 |
| 20260503000505 | 10 | 314 | 1.6 | 3.2 | 0.00 | 0.00 | 0.00 | 59 | 1014.9 |
| 20260503000006 | 10 | 314 | 1.6 | 3.2 | 0.00 | 0.00 | 0.00 | 59 | 1015.0 |
| 20260502235505 | 10 | 314 | 3.2 | 3.2 | 0.00 | 0.00 | 0.00 | 59 | 1015.1 |
| 20260502235006 | 10 | 312 | 1.6 | 3.2 | 0.00 | 0.00 | 0.00 | 58 | 1015.2 |
| 20260502234505 | 10 | 313 | 3.2 | 3.2 | 0.00 | 0.00 | 0.00 | 58 | 1015.2 |
| 20260502234006 | 10 | 311 | 3.2 | 3.2 | 0.00 | 0.00 | 0.00 | 59 | 1015.1 |
| 20260502232505 | 9 | 307 | 3.2 | 3.2 | 0.00 | 0.00 | 0.00 | 62 | 1015.3 |
| 20260502232005 | 9 | 314 | 3.2 | 3.2 | 0.00 | 0.00 | 0.00 | 62 | 1015.2 |
| 20260502230505 | 9 | 286 | 3.2 | 3.2 | 0.00 | 0.00 | 0.00 | 64 | 1015.2 |
| 20260502230005 | 9 | 289 | 3.2 | 3.2 | 0.00 | 0.00 | 0.00 | 66 | 1015.3 |
| 20260502225505 | 9 | 290 | 3.2 | 3.2 | 0.00 | 0.00 | 0.00 | 66 | 1015.4 |
| 20260502225006 | 9 | 292 | 3.2 | 3.2 | 0.00 | 0.00 | 0.00 | 65 | 1015.3 |
| 20260502224005 | 9 | 292 | 3.2 | 3.2 | 0.00 | 0.00 | 0.00 | 65 | 1015.5 |
| 20260502223505 | 9 | 292 | 1.6 | 3.2 | 0.00 | 0.00 | 0.00 | 66 | 1015.7 |
| 20260502223005 | 9 | 288 | 3.2 | 3.2 | 0.00 | 0.00 | 0.00 | 65 | 1015.6 |
| 20260502222505 | 9 | 288 | 1.6 | 3.2 | 0.00 | 0.00 | 0.00 | 65 | 1015.3 |
| 20260502221506 | 10 | 282 | 1.6 | 3.2 | 0.00 | 0.00 | 0.00 | 63 | 1015.7 |
| 20260502220009 | 10 | 266 | 3.2 | 3.2 | 0.00 | 0.00 | 0.00 | 63 | 1015.6 |
| 20260502214506 | 10 | 269 | 3.2 | 3.2 | 0.00 | 0.00 | 0.00 | 62 | 1015.5 |
| 20260502214005 | 10 | 267 | 1.6 | 3.2 | 0.00 | 0.00 | 0.00 | 64 | 1015.6 |
| 20260502213506 | 10 | 256 | 3.2 | 3.2 | 0.00 | 0.00 | 0.00 | 65 | 1015.8 |
| 20260502213005 | 10 | 230 | 3.2 | 6.4 | 0.00 | 0.00 | 0.00 | 65 | 1015.4 |
| 20260502212506 | 10 | 219 | 3.2 | 6.4 | 0.00 | 0.00 | 0.00 | 63 | 1015.6 |
| 20260502211506 | 10 | 218 | 3.2 | 3.2 | 0.00 | 0.00 | 0.00 | 64 | 1015.7 |
| 20260502211005 | 10 | 211 | 1.6 | 6.4 | 0.00 | 0.00 | 0.00 | 64 | 1015.8 |
| 20260502210506 | 10 | 206 | 3.2 | 6.4 | 0.00 | 0.00 | 0.00 | 64 | 1015.7 |
| 20260502210005 | 10 | 199 | 3.2 | 6.4 | 0.00 | 0.00 | 0.00 | 64 | 1015.6 |
| 20260502205505 | 10 | 194 | 3.2 | 6.4 | 0.00 | 0.00 | 0.00 | 64 | 1015.8 |
| 20260502205005 | 10 | 191 | 4.8 | 6.4 | 0.00 | 0.00 | 0.00 | 64 | 1015.5 |
| 20260502204506 | 10 | 187 | 4.8 | 6.4 | 0.00 | 0.00 | 0.00 | 64 | 1015.6 |
| 20260502204005 | 10 | 162 | 3.2 | 3.2 | 0.00 | 0.00 | 0.00 | 64 | 1015.7 |
| 20260502203505 | 10 | 153 | 3.2 | 3.2 | 0.00 | 0.00 | 0.00 | 64 | 1015.7 |
| 20260502203005 | 10 | 155 | 3.2 | 3.2 | 0.00 | 0.00 | 0.00 | 64 | 1015.8 |
| 20260502202505 | 10 | 151 | 3.2 | 6.4 | 0.00 | 0.00 | 0.00 | 63 | 1016.0 |
| 20260502202005 | 10 | 136 | 3.2 | 6.4 | 0.00 | 0.00 | 0.00 | 63 | 1015.8 |
| 20260502201505 | 10 | 128 | 3.2 | 3.2 | 0.00 | 0.00 | 0.00 | 62 | 1015.7 |
| 20260502201006 | 10 | 135 | 3.2 | 3.2 | 0.00 | 0.00 | 0.00 | 63 | 1015.0 |
| 20260502200505 | 10 | 158 | 0.0 | 3.2 | 0.00 | 0.00 | 0.00 | 64 | 1015.5 |
| 20260502195005 | 10 | 158 | 0.0 | 3.2 | 0.00 | 0.00 | 0.00 | 64 | 1015.7 |
| 20260502194505 | 10 | 157 | 3.2 | 3.2 | 0.00 | 0.00 | 0.00 | 64 | 1015.7 |
| 20260502194005 | 11 | 157 | 3.2 | 3.2 | 0.00 | 0.00 | 0.00 | 63 | 1015.6 |
| 20260502192505 | 11 | 143 | 4.8 | 6.4 | 0.00 | 0.00 | 0.00 | 63 | 1015.5 |
| 20260502192006 | 10 | 147 | 4.8 | 6.4 | 0.00 | 0.00 | 0.00 | 64 | 1015.7 |
| 20260502191505 | 10 | 150 | 3.2 | 6.4 | 0.00 | 0.00 | 0.00 | 64 | 1015.8 |
| 20260502191005 | 10 | 147 | 4.8 | 6.4 | 0.00 | 0.00 | 0.00 | 65 | 1015.6 |
| 20260502190005 | 10 | 133 | 6.4 | 9.7 | 0.00 | 0.00 | 0.00 | 65 | 1015.7 |
| 20260502185505 | 10 | 133 | 4.8 | 9.7 | 0.00 | 0.00 | 0.00 | 65 | 1015.4 |
| 20260502185005 | 10 | 135 | 6.4 | 9.7 | 0.00 | 0.00 | 0.00 | 65 | 1015.4 |
| 20260502184506 | 10 | 134 | 6.4 | 9.7 | 0.00 | 0.00 | 0.00 | 65 | 1015.5 |
| 20260502184005 | 10 | 132 | 6.4 | 9.7 | 0.00 | 0.00 | 0.00 | 64 | 1015.7 |
| 20260502183006 | 10 | 129 | 6.4 | 9.7 | 0.00 | 0.00 | 0.00 | 65 | 1015.5 |
| 20260502182505 | 10 | 129 | 6.4 | 9.7 | 0.00 | 0.00 | 0.00 | 65 | 1015.4 |
| 20260502182005 | 10 | 130 | 6.4 | 9.7 | 0.00 | 0.00 | 0.00 | 66 | 1015.4 |
| 20260502181505 | 10 | 130 | 6.4 | 11.3 | 0.00 | 0.00 | 0.00 | 66 | 1015.5 |
| 20260502181006 | 10 | 127 | 6.4 | 11.3 | 0.00 | 0.00 | 0.00 | 65 | 1015.4 |
| 20260502180505 | 10 | 129 | 8.0 | 11.3 | 0.00 | 0.00 | 0.00 | 65 | 1015.4 |
| 20260502170505 | 11 | 112 | 3.2 | 6.4 | 0.00 | 0.00 | 0.00 | 63 | 1015.5 |
| 20260502164006 | 11 | 109 | 6.4 | 9.7 | 0.00 | 0.00 | 0.00 | 62 | 1015.3 |
| 20260502163005 | 11 | 99 | 6.4 | 11.3 | 0.00 | 0.00 | 0.00 | 62 | 1015.6 |
| 20260502162006 | 11 | 112 | 6.4 | 11.3 | 0.00 | 0.00 | 0.00 | 62 | 1015.6 |
| 20260502160506 | 11 | 95 | 6.4 | 11.3 | 0.00 | 0.00 | 0.00 | 62 | 1015.6 |
| 20260502152006 | 12 | 102 | 4.8 | 9.7 | 0.00 | 0.00 | 0.00 | 61 | 1016.0 |
| 20260502151505 | 12 | 101 | 3.2 | 9.7 | 0.00 | 0.00 | 0.00 | 62 | 1016.0 |
| 20260502151006 | 12 | 93 | 6.4 | 11.3 | 0.00 | 0.00 | 0.00 | 61 | 1016.3 |
| 20260502150505 | 12 | 90 | 6.4 | 11.3 | 0.00 | 0.00 | 0.00 | 61 | 1015.8 |
| 20260502130505 | 13 | 87 | 3.2 | 12.9 | 0.00 | 0.00 | 0.00 | 62 | 1017.2 |
| 20260502123505 | 13 | 87 | 3.2 | 9.7 | 0.00 | 0.00 | 0.00 | 57 | 1016.8 |
| 20260502123005 | 13 | 86 | 0.0 | 9.7 | 0.00 | 0.00 | 0.00 | 60 | 1017.2 |
| 20260502122505 | 13 | 90 | 3.2 | 9.7 | 0.00 | 0.00 | 0.00 | 57 | 1017.3 |
| 20260502122005 | 14 | 100 | 1.6 | 6.4 | 0.00 | 0.00 | 0.00 | 59 | 1017.4 |
| 20260502121505 | 14 | 95 | 1.6 | 12.9 | 0.00 | 0.00 | 0.00 | 62 | 1016.7 |
| 20260502120506 | 14 | 100 | 3.2 | 9.7 | 0.00 | 0.00 | 0.00 | 63 | 1017.4 |
| 20260502115505 | 12 | 112 | 4.8 | 9.7 | 0.00 | 0.00 | 0.00 | 60 | 1016.9 |
| 20260502115006 | 13 | 105 | 3.2 | 9.7 | 0.00 | 0.00 | 0.00 | 62 | 1017.0 |
| 20260502114005 | 13 | 114 | 3.2 | 11.3 | 0.00 | 0.00 | 0.00 | 64 | 1017.8 |
| 20260502113505 | 13 | 118 | 3.2 | 6.4 | 0.00 | 0.00 | 0.00 | 63 | 1017.1 |
| 20260502113006 | 13 | 109 | 3.2 | 11.3 | 0.00 | 0.00 | 0.00 | 65 | 1017.1 |
| 20260502112505 | 12 | 108 | 3.2 | 11.3 | 0.00 | 0.00 | 0.00 | 64 | 1017.8 |
| 20260502111506 | 13 | 108 | 1.6 | 6.4 | 0.00 | 0.00 | 0.00 | 62 | 1018.2 |
| 20260502111005 | 13 | 110 | 3.2 | 6.4 | 0.00 | 0.00 | 0.00 | 65 | 1017.2 |
| 20260502110506 | 14 | 106 | 3.2 | 6.4 | 0.00 | 0.00 | 0.00 | 64 | 1018.1 |
| 20260502110006 | 13 | 90 | 1.6 | 6.4 | 0.00 | 0.00 | 0.00 | 62 | 1017.2 |
| 20260502105505 | 13 | 86 | 3.2 | 6.4 | 0.00 | 0.00 | 0.00 | 63 | 1018.2 |
| 20260502105006 | 13 | 111 | 1.6 | 9.7 | 0.00 | 0.00 | 0.00 | 63 | 1017.6 |
| 20260502104506 | 13 | 128 | 1.6 | 9.7 | 0.00 | 0.00 | 0.00 | 65 | 1018.2 |
| 20260502103505 | 12 | 90 | 4.8 | 6.4 | 0.00 | 0.00 | 0.00 | 65 | 1018.3 |
| 20260502103005 | 12 | 98 | 3.2 | 6.4 | 0.00 | 0.00 | 0.00 | 65 | 1018.4 |
| 20260502102505 | 13 | 126 | 3.2 | 11.3 | 0.00 | 0.00 | 0.00 | 66 | 1017.6 |
| 20260502102005 | 11 | 140 | 4.8 | 11.3 | 0.00 | 0.00 | 0.00 | 66 | 1018.5 |
| 20260502101505 | 12 | 130 | 3.2 | 11.3 | 0.00 | 0.00 | 0.00 | 70 | 1018.4 |
| 20260502101006 | 11 | 120 | 4.8 | 11.3 | 0.00 | 0.00 | 0.00 | 66 | 1018.6 |
| 20260502100505 | 13 | 100 | 3.2 | 11.3 | 0.00 | 0.00 | 0.00 | 66 | 1018.4 |
| 20260502091505 | 12 | 102 | 3.2 | 6.4 | 0.00 | 0.00 | 0.00 | 67 | 1018.7 |
| 20260502090506 | 12 | 103 | 3.2 | 6.4 | 0.00 | 0.00 | 0.00 | 67 | 1018.6 |
| 20260502071506 | 9 | 158 | 1.6 | 9.7 | 0.00 | 0.00 | 0.00 | 62 | 1018.7 |
| 20260502070505 | 9 | 152 | 1.6 | 6.4 | 0.00 | 0.00 | 0.00 | 63 | 1018.8 |
| 20260502065505 | 10 | 140 | 3.2 | 6.4 | 0.00 | 0.00 | 0.00 | 68 | 1018.7 |
| 20260502065005 | 8 | 140 | 3.2 | 6.4 | 0.00 | 0.00 | 0.00 | 67 | 1018.9 |
| 20260502064506 | 8 | 144 | 3.2 | 9.7 | 0.00 | 0.00 | 0.00 | 65 | 1018.7 |
| 20260502064006 | 9 | 149 | 3.2 | 9.7 | 0.00 | 0.00 | 0.00 | 67 | 1018.6 |
| 20260502063505 | 8 | 159 | 3.2 | 9.7 | 0.00 | 0.00 | 0.00 | 65 | 1018.7 |
| 20260502062006 | 8 | 123 | 3.2 | 6.4 | 0.00 | 0.00 | 0.00 | 67 | 1018.5 |
| 20260502061505 | 9 | 133 | 0.0 | 6.4 | 0.00 | 0.00 | 0.00 | 66 | 1018.7 |
| 20260502061006 | 8 | 165 | 4.8 | 6.4 | 0.00 | 0.00 | 0.00 | 65 | 1018.8 |
| 20260502060505 | 8 | 173 | 3.2 | 6.4 | 0.00 | 0.00 | 0.00 | 65 | 1018.8 |
| 20260502060006 | 8 | 189 | 3.2 | 6.4 | 0.00 | 0.00 | 0.00 | 65 | 1018.5 |
| 20260502055505 | 9 | 223 | 0.0 | 3.2 | 0.00 | 0.00 | 0.00 | 68 | 1018.6 |
| 20260502055009 | 9 | 244 | 1.6 | 3.2 | 0.00 | 0.00 | 0.00 | 63 | 1018.6 |
| 20260502054505 | 9 | 0 | 0.0 | 0.0 | 0.00 | 0.00 | 0.00 | 67 | 1018.7 |
| 20260502054005 | 9 | 292 | 0.0 | 3.2 | 0.00 | 0.00 | 0.00 | 69 | 1018.7 |